星链-35677(STARLINK-35677)

导读 | 豆包AI

STARLINK-35677是美国SpaceX公司于2025年10月28日发射的星链低轨通信卫星,是星链星座建设中批量生产的组网卫星。它采用平板设计、搭载以氪为工质的霍尔推进器,支持Ku/Ka波段通信,配备光学星间链路与自主避撞能力,旨在为全球提供低延迟、高速宽带互联网服务,尤其可改善偏远地区网络覆盖,服役寿命末期会主动离轨再入大气层烧毁,减少空间碎片影响。

Basic Information
目录编号:
66220
目录名称:
STARLINK-35677
国际标识:
2025-244Q
轨道中心:
EARTH
卫星名称:
星链-35677
卫星全名:
星链-35677(STARLINK-35677)
卫星状态:
在轨 (已飞行209 天)
发射日期:
2025-10-28 UTC
国别 :
美国 (US)
星等 :
--
Orbit Information
数据来源 国际轨道数据 AOE轨道数据
星历时间 2026-05-25T07:34:00+0800
13小时前
查看轨道信息
2026-05-24T05:00:00+0800
1天前
查看轨道信息
半长轴 6853.336km 6853.388km
偏心率 0.0000902 0.0000773
轨道倾角 53.158° 53.160°
近地点辐角 93.251° 58.389°
升交点赤经 235.294° 240.438°
平近点角 266.859° 320.470°
近地点 474.58km 474.721km
远地点 475.818km 475.781km
周期 94.105分钟 94.106分钟
每日圈数 15.302056 15.301882
Detailed Information
固有亮度:
5
最大亮度:
2.5
卫星平台:
Starlink V1.0
覆盖范围:
全球
运营商:
太空探索技术公司
运营商所在国:
美国
制造商(研发单位):
太空探索技术公司
制造商所在国:
美国
使用方式:
暂无
Satellite Introduction
Starlink 计划是 SpaceX 推出的全球卫星互联网项目,通过发射低轨道卫星,为全球尤其是偏远地区提供高速、低延迟的互联网服务。自 2019 年起,Starlink 已部署数千颗卫星,旨在缩小全球数字鸿沟,推动互联网普及。该项目还为军事、航空等行业提供通信支持,带来广泛经济效益。
2D Orbit Map
3D Orbit Map
Orbit Altitude Analysis Chart
Orbit Inclination Analysis Chart
Orbit Comprehensive Analysis Chart
View Comprehensive Chart